Tracking 22873 objects as of 23-Apr-2021
HD Live streaming from Space Station
objects crossing your sky now

IRIDIUM 42

Track IRIDIUM 42 now!
10-day predictions
IRIDIUM 42 is classified as:


NORAD ID: 25077
Int'l Code: 1997-077A
Perigee: 781.6 km
Apogee: 785.3 km
Inclination: 86.4 °
Period: 100.4 minutes
Semi major axis: 7154 km
RCS: 3.3675 m2 (large)
Launch date: December 8, 1997
Source: United States (US)
Launch site: Taiyaun Space Center, China (TSC)
aabbcc
Your satellite tracking list
Your tracking list is empty




NASA's NSSDC Master Catalog

Two Line Element Set (TLE):
1 25077U 97077A   21112.61965274  .00000115  00000-0  33849-4 0  9996
2 25077  86.3976 154.2740 0002582  79.9796 280.1691 14.34639308223677
Source of the keplerian elements: AFSPC